Weather History for Twentynine Palms, CA

Change the Weather History Date:

Tuesday, February 26, 2013

  Actual Average Record
Temperature  
Mean Temperature 51 °F -  
Max Temperature 63 °F 61 °F 80 °F (2005)
Min Temperature 39 °F 41 °F 35 °F (2011)
Degree Days  
Heating Degree Days 14    
Growing Degree Days 1 (Base 50)    
Moisture  
Dew Point 8 °F    
Average Humidity 20    
Maximum Humidity 37    
Minimum Humidity 8    
Precipitation  
Precipitation 0.00 in - - ()
Sea Level Pressure  
Sea Level Pressure 30.12 in    
Wind  
Wind Speed 6 mph (NW)    
Max Wind Speed 18 mph    
Max Gust Speed 24 mph    
Visibility 10 miles    
Events      
Averages and records for this station are not official NWS values.
T = Trace of Precipitation, MM = Missing Value Source: NWS Daily Summary

Daily Weather History Graph

Daily Weather History Graph

Search for Another Location

Airport:

Trip Planner

Search our weather history database for the weather conditions in past years. The results will help you decide how hot, cold, wet, or windy it might be!

Date:

Astronomy

Feb. 26, 2013 Rise Set
Actual Time 6:16 AM PST 5:38 PM PST
Civil Twilight 5:51 AM PST 6:03 PM PST
Nautical Twilight 5:22 AM PST 6:32 PM PST
Astronomical Twilight 4:53 AM PST 7:02 PM PST
Moon 6:53 PM PST 6:26 AM PST
Length of Visible Light 12h 12m
Length of Day
11h 21m
Full, 99% of the Moon is Illuminated
Feb 26
Full
Mar 4
Last Quarter
Mar 11
New
Mar 19
First Quarter
Mar 27
Full

Hourly Weather History & Observations

Time (PST) Temp. Windchill Dew Point Humidity Pressure Visibility Wind Dir Wind Speed Gust Speed Precip Events Conditions
12:56 AM 41.0 °F - 7.0 °F 25% 30.04 in 10.0 mi Calm Calm - N/A   Clear
1:56 AM 46.0 °F - 14.0 °F 28% 30.03 in 10.0 mi Calm Calm - N/A   Clear
2:56 AM 46.0 °F 41.4 °F 15.1 °F 29% 30.03 in 10.0 mi NNW 9.2 mph - N/A   Clear
3:56 AM 43.0 °F 38.8 °F 16.0 °F 34% 30.04 in 10.0 mi West 6.9 mph - N/A   Clear
4:56 AM 45.0 °F - 14.0 °F 29% 30.05 in 10.0 mi Calm Calm - N/A   Clear
5:56 AM 43.0 °F 37.2 °F 17.1 °F 35% 30.08 in 10.0 mi West 10.4 mph - N/A   Clear
6:56 AM 43.0 °F 40.3 °F 18.0 °F 37% 30.09 in 10.0 mi Variable 4.6 mph - N/A   Clear
7:56 AM 46.9 °F - 18.0 °F 32% 30.12 in 10.0 mi NNW 5.8 mph - N/A   Clear
8:56 AM 54.0 °F - 15.1 °F 22% 30.14 in 10.0 mi NW 5.8 mph - N/A   Partly Cloudy
9:56 AM 57.9 °F - 10.9 °F 16% 30.14 in 10.0 mi NNW 17.3 mph 24.2 mph N/A   Partly Cloudy
10:56 AM 59.0 °F - 10.0 °F 14% 30.16 in 10.0 mi NW 13.8 mph 20.7 mph N/A   Partly Cloudy
11:56 AM 60.1 °F - 6.1 °F 12% 30.14 in 10.0 mi North 13.8 mph 21.9 mph N/A   Partly Cloudy
12:56 PM 61.0 °F - 7.0 °F 12% 30.11 in 10.0 mi NNW 12.7 mph 20.7 mph N/A   Clear
1:56 PM 62.1 °F - 3.9 °F 10% 30.09 in 10.0 mi NNW 15.0 mph 19.6 mph N/A   Clear
2:56 PM 63.0 °F - -0.9 °F 8% 30.09 in 10.0 mi North 18.4 mph 24.2 mph N/A   Clear
3:56 PM 62.1 °F - 1.0 °F 9% 30.09 in 10.0 mi North 10.4 mph - N/A   Clear
4:56 PM 61.0 °F - 3.9 °F 10% 30.09 in 10.0 mi North 12.7 mph - N/A   Clear
5:56 PM 55.9 °F - 3.0 °F 12% 30.12 in 10.0 mi North 6.9 mph - N/A   Clear
6:56 PM 53.1 °F - 3.0 °F 13% 30.14 in 10.0 mi NNW 8.1 mph - N/A   Clear
7:56 PM 50.0 °F - 1.9 °F 14% 30.16 in 10.0 mi WNW 6.9 mph - N/A   Clear
8:56 PM 48.0 °F - 3.0 °F 16% 30.19 in 10.0 mi NW 3.5 mph - N/A   Clear
9:56 PM 44.1 °F 40.1 °F 3.0 °F 18% 30.21 in 10.0 mi SW 6.9 mph - N/A   Clear
10:56 PM 39.9 °F 33.9 °F 3.9 °F 22% 30.23 in 10.0 mi SW 9.2 mph - N/A   Clear
11:56 PM 39.9 °F - 5.0 °F 23% 30.24 in 10.0 mi Calm Calm - N/A   Clear